Tracking 28764 objects as of 12-Apr-2024
HD Live streaming from Space Station
objects crossing your sky now

OBJECT H

Track OBJECT H now!
10-day predictions


NORAD ID: 42832
Int'l Code: 2017-042H
Perigee: 576.1 km
Apogee: 591.6 km
Inclination: 97.4 °
Period: 96.2 minutes
Semi major axis: 6954 km
RCS: Unknown
Launch date: July 14, 2017
Source: (TBD)
Launch site: TYURATAM MISSILE AND SPACE COMPLEX (TTMTR)
Your satellite tracking list
Your tracking list is empty




NASA's NSSDC Master Catalog

Two Line Element Set (TLE):
1 42832U 17042H   24103.50393112  .00003975  00000-0  35120-3 0  9995
2 42832  97.3816 289.6203 0011153 291.2495  68.7536 14.96835730367421
Source of the keplerian elements: AFSPC